Regional Weather Roundup
Issued by NWS

Home | Current Version | Previous Version | Graphics & Text | Print | Product List | Glossary On
Versions: 1 2 3 4 5 6 7 8 9 10 11 12 13 14 15 16 17 18 19 20 21 22 23 24 25 26 27 28 29 30 31 32 33 34 35 36 37 38 39 40 41 42 43 44 45 46 47 48 49 50
000
ASUS45 KPSR 210200
RWRAZ

PRELIMINARY ARIZONA REGIONAL HOURLY WEATHER ROUNDUP
NATIONAL WEATHER SERVICE PHOENIX AZ
700 PM MST SAT DEC 20 2014

NOTE: FAIR INDICATES FEW OR NO CLOUDS BELOW 12,000 FEET WITH NO
SIGNIFICANT WEATHER AND/OR OBSTRUCTIONS TO VISIBILITY.

AZZ001>003-036-210300-
NORTHWEST ARIZONA

CITY           SKY/WX    TMP DP  RH WIND       PRES   REMARKS
KINGMAN        MOCLDY    42  36  79 SW3       30.13R
$$

AZZ004>008-015-016-018-210300-
NORTH CENTRAL ARIZONA

CITY           SKY/WX    TMP DP  RH WIND       PRES   REMARKS
GRAND CANYON   CLOUDY    30  25  81 CALM      30.15R
PRESCOTT       MOCLDY    43  27  53 SE6       30.12F
FLAGSTAFF      NOT AVBL
PAYSON         CLOUDY    45  32  61 CALM      30.14F
PAGE           PTCLDY    38  30  73 SE3       30.14R
$$

AZZ009>014-017-210300-
NORTHEAST ARIZONA

CITY           SKY/WX    TMP DP  RH WIND       PRES   REMARKS
WINSLOW        NOT AVBL
SAINT JOHNS    MOCLDY    34  27  75 S6        30.12S WCI  29
WINDOW ROCK    CLOUDY    35  25  66 CALM      30.13S
SHOW LOW       CLOUDY    32  25  74 SW5       30.17R WCI  27
$$

AZZ023-210300-
GREATER PHOENIX AREA

CITY           SKY/WX    TMP DP  RH WIND       PRES   REMARKS
PHOENIX        MOCLDY    61  37  41 NW6       30.09R
GLENDALE       MOCLDY    55  41  58 CALM      30.12R
LUKE AFB       PTCLDY    54  43  66 CALM      30.10R
DEER VALLEY    MOCLDY    53  40  61 CALM      30.09R
SCOTTSDALE     MOCLDY    58  38  47 CALM      30.11R
MESA-FALCON    MOCLDY    55  37  50 CALM      30.10R
CHANDLER       PTCLDY    55  39  54 CALM      30.11R
$$

AZZ027-028-210300-
SOUTHWEST MARICOPA COUNTY AND PINAL COUNTY

CITY           SKY/WX    TMP DP  RH WIND       PRES   REMARKS
CASA GRANDE    PTCLDY    52  39  62 CALM      30.12R
GILA BEND      FAIR      56  45  65 CALM      30.12R
$$

AZZ503-504-507>509-210300-
SOUTHEAST ARIZONA

CITY           SKY/WX    TMP DP  RH WIND       PRES   REMARKS
TUCSON         PTCLDY    53  38  56 N5        30.13R
DAVIS-MONTHAN  CLEAR     51  40  65 N3        30.11R
RYAN FIELD       N/A     54  43  66 W7        30.13R
NOGALES        CLEAR     45  28  51 E6        30.10R
SIERRA VISTA   CLEAR     44  29  55 W3        30.12R
SAFFORD        MOCLDY    47  39  74 N8        30.10R
$$

AZZ020-021-025-026-031-210300-
SOUTHWEST ARIZONA

CITY           SKY/WX    TMP DP  RH WIND       PRES   REMARKS
YUMA           CLOUDY   N/A N/A N/A NW6       30.10R
$$

CAZ031-033-041-043-047-048-061-210300-
SOUTHERN CALIFORNIA

CITY           SKY/WX    TMP DP  RH WIND       PRES   REMARKS
DOWNTOWN L.A.  MOCLDY    59  53  80 CALM      30.11F
L.A. AIRPORT   CLOUDY    60  55  83 E5        30.12S
SAN DIEGO      CLOUDY    62  54  74 NW3       30.16R
BURBANK        CLOUDY    58  47  66 SE5       30.12S
ONTARIO        PTCLDY    55  47  74 NW3       30.15R
RIVERSIDE      CLOUDY    56  48  74 CALM      30.16R
PALM SPRINGS   CLEAR     61  43  51 NW5       30.12R
EL CENTRO NAS  CLOUDY    58  43  57 NW5       30.10R
IMPERIAL       CLOUDY    59  44  57 NW3       30.10R
BLYTHE         MOCLDY    55  49  80 N5        30.12R
$$

NVZ020-UTZ003-210300-
SOUTHERN NEVADA-UTAH

CITY           SKY/WX    TMP DP  RH WIND       PRES   REMARKS
LAS VEGAS      NOT AVBL
SALT LAKE CITY CLOUDY    41  34  76 SE9       30.05F
$$

NMZ009-TXZ055-210300-
NEW MEXICO-WEST TEXAS

CITY           SKY/WX    TMP DP  RH WIND       PRES   REMARKS
ALBUQUERQUE    MOCLDY    40  26  57 W3        30.11R
EL PASO        PTCLDY    49  29  46 W8        30.07R
$$


........................KEY........................
SKY/WX - SKY CONDITION/WEATHER
TMP    - TEMPERATURE IN FAHRENHEIT
DP     - DEW POINT IN FAHRENHEIT
RH     - RELATIVE HUMIDITY IN PERCENT
WIND   - DIRECTION AND SPEED IN MILES PER HOUR (MPH)
VRB    - VARIABLE WIND DIRECTION
PRES   - MEAN SEA LEVEL PRESSURE IN INCHES OF MERCURY
         F - FALLING PRESSURE   R - RISING PRESSURE
         S - STEADY PRESSURE
VSB    - VISIBILITY IN MILES
HX     - HEAT INDEX IN FAHRENHEIT
WCI    - WIND CHILL INDEX IN FAHRENHEIT
TC     - TEMPERATURE IN CELSIUS WHICH IS ALSO KNOWN AS
         TEMPERATURE IN CENTIGRADE
AFB    - AIR FORCE BASE
         LUKE AFB IS LUKE AIR FORCE BASE
         DAVIS-MONTHAN IS DAVIS-MONTHAN AIR FORCE BASE
NAS    - NAVAL AIR STATION
         EL CENTRO NAS IS EL CENTRO NAVAL AIR STATION
N/A    - NOT AVAILABLE


USA.gov is the U.S. government's official web portal to all federal, state and local government web resources and services.